Location: Hac?musa Deresi
(39.1694°N, 32.2508°E)
Time: 09:04:54
(UTC+00:00)

Meteor 2-16 Rocket - Pass Details

Date: 22 April 2026
Orbit: 941 x 956 km, 82.6° (Epoch: 12 May)

Event Time Altitude Azimuth Distance (km) Brightness Sun altitude
Rises 18:07:56 0° 354° (N) 3,634 8.1 -17.1°
Reaches altitude 10° 18:10:27 10° 356° (N) 2,682 7.3 -17.5°
Maximum altitude 18:16:35 75° 82° (E) 982 4.4 -18.5°
Enters shadow 18:20:29 24° 164° (SSE) 1,862 5.5 -19.2°
